This is the latest recevied weather packets stored in our database for station/object KD8OUK. If no packets are shown the sender has not sent any weather packets the latest 1 day(s).
| Time | Temp. | Humidity | Pressure | Rain* | Wind** | Luminosity | Snow |
|---|---|---|---|---|---|---|---|
| 1778038220 | 7.22° C | 99% | 1008.5 hPa | 4.06 mm | - | - | - |
| 1778037333 | 7.78° C | 99% | 1008.7 hPa | 6.1 mm | - | - | - |
| 1778037025 | 7.78° C | 99% | 1008.7 hPa | 6.1 mm | - | - | - |
| 1778036717 | 7.78° C | 99% | 1008.7 hPa | 6.1 mm | - | - | - |
| 1778035829 | 7.78° C | 99% | 1009.3 hPa | 5.84 mm | - | - | - |
| 1778035232 | 7.78° C | 99% | 1009.5 hPa | 5.33 mm | - | - | - |
| 1778034924 | 7.78° C | 99% | 1009.5 hPa | 5.33 mm | - | - | - |
| 1778034616 | 7.78° C | 99% | 1009.5 hPa | 5.33 mm | - | - | - |
| 1778034326 | 8.33° C | 99% | 1009.6 hPa | 5.33 mm | - | - | - |
| 1778034019 | 8.33° C | 99% | 1009.7 hPa | 5.08 mm | - | - | - |
| 1778033729 | 8.33° C | 99% | 1009.6 hPa | 5.84 mm | - | - | - |
| 1778033421 | 8.33° C | 99% | 1009.3 hPa | 6.6 mm | - | - | - |
| 1778033131 | 8.33° C | 99% | 1009.3 hPa | 7.62 mm | - | - | - |
| 1778032532 | 8.89° C | 99% | 1009.3 hPa | 8.89 mm | - | - | - |
| 1778032224 | 8.89° C | 99% | 1009.4 hPa | 8.89 mm | - | - | - |
| 1778031917 | 8.89° C | 99% | 1009.5 hPa | 8.89 mm | - | - | - |
| 1778031625 | 8.89° C | 99% | 1009.5 hPa | 8.64 mm | - | - | - |
| 1778031318 | 8.89° C | 99% | 1009.5 hPa | 8.38 mm | - | - | - |
| 1778031022 | 8.89° C | 99% | 1009.5 hPa | 7.87 mm | - | - | - |
| 1778030720 | 8.89° C | 99% | 1009.4 hPa | 7.37 mm | - | - | - |
| 1778030418 | 8.89° C | 99% | 1009.3 hPa | 7.37 mm | - | - | - |
| 1778030116 | 8.89° C | 99% | 1009.3 hPa | 7.11 mm | - | - | - |
| 1778029524 | 9.44° C | 99% | 1009.1 hPa | 7.62 mm | - | - | - |
| 1778029217 | 9.44° C | 99% | 1009 hPa | 8.13 mm | - | - | - |
| 1778028927 | 9.44° C | 99% | 1008.9 hPa | 9.14 mm | - | - | - |
* Rain latest hour (hover to see other rain measurements)
** Current wind speed in m/s (hover to see current wind gust speed)